JASON-3 (41240 NORAD) Tracking and Keplerian Element Data

This shows tracking and keplerian element data for the satellite.

Feedback or suggestion? Click here.




ElementValue
Catalog41240
NameJASON-3
Epoch Orbit39249
Epoch Day160.21016027
Epoch Year2024
RAAN229.9854
Inclination66.0411
Eccentricity0.0008352
Argument of Perigee270.7258
Mean Anonmoly89.2801
Mean Motion12.80930902
Decay Rate2E-08
L11 41240U 16002A 24160.21016027 .00000002 00000+0 27397-3 0 9994
L22 41240 66.0411 229.9854 0008352 270.7258 89.2801 12.80930902392498



Live tracking and technical data element details for JASON-3 (NORAD 41240). JASON-3 can be tracked NOW for your location showing map with azimuth and elevation plus other details from your city location.







IsCatalogInMostPopularTable: catalog: 41240, numindb: 600
Update: records affected: 1



GetName: 41240 JASON-3

Hit Count: updated at: Mon, 17 Jun 2024 22:45:21 GMT